Flight Track Log - Related Links

Times and Time Zones

All times are in EDT time to prevent confusion due to time zone crossing. See the N779NC flight status page for this flight to view local times or setup timezone preferences in your user account.

Time Position Orientation Groundspeed Altitude Reporting Facility
EDT Latitude Longitude Course Direction KTS MPH feet Rate Location/Type
Mon 07:18:26 PM 36.1500 -86.6667 340° North 153 176 1,300  Level Nashville TRACON
Mon 07:19:38 PM 36.2167 -86.6333 22° Northeast 240 276 2,600 1,333 Climbing Nashville TRACON
Mon 07:20:50 PM 36.3000 -86.6333 360° North 291 335 4,500 2,136 Climbing Nashville TRACON
Mon 07:21:00 PM 36.5185 -86.8592 338° Northwest  Level FlightAware Approximate
Mon 07:21:50 PM 36.3725 -86.6636 341° North 312 359 7,300  Level Memphis Center
Mon 07:22:00 PM 36.6184 -86.9091 338° Northwest  Level FlightAware Approximate
Mon 07:22:50 PM 36.4544 -86.6881 347° North 312 359 9,900  Level Memphis Center
Mon 07:23:00 PM 36.7186 -86.9583 340° North  Level FlightAware Approximate
Mon 07:23:50 PM 36.5450 -86.7178 345° North 318 366 10,900  Level Memphis Center
Mon 07:24:50 PM 36.6500 -86.7464 348° North 358 412 12,300 1,700 Climbing Memphis Center
Mon 07:25:50 PM 36.7572 -86.7753 348° North 380 437 14,300 1,800 Climbing Memphis Center
Mon 07:26:50 PM 36.8528 -86.8358 333° Northwest 386 444 15,900 1,550 Climbing Memphis Center
Mon 07:27:50 PM 36.9406 -86.9256 321° Northwest 393 452 17,400 1,700 Climbing Memphis Center
Mon 07:28:50 PM 37.0367 -87.0097 325° Northwest 407 468 19,300 1,510 Climbing Memphis Center
Mon 07:30:25 PM 37.2089 -86.9936 North 436 502 21,300 1,261 Climbing Indianapolis Center
Mon 07:31:27 PM 37.3325 -86.9617 12° North 446 513 22,600 1,355 Climbing Indianapolis Center
Mon 07:32:29 PM 37.4572 -86.9411 North 449 517 24,100 1,742 Climbing Indianapolis Center
Mon 07:33:31 PM 37.5947 -86.9206 North 446 513 26,200 1,645 Climbing Indianapolis Center
Mon 07:34:33 PM 37.6958 -86.8350 34° Northeast 451 519 27,500 1,258 Climbing Indianapolis Center
Mon 07:35:35 PM 37.7903 -86.7297 41° Northeast 453 521 28,800 732 Climbing Indianapolis Center
Mon 07:36:36 PM 37.8806 -86.6164 45° Northeast 457 526 29,000 98 Climbing Indianapolis Center
Mon 07:37:38 PM 37.9744 -86.5014 44° Northeast 469 540 29,000  Level Indianapolis Center
Mon 07:38:40 PM 38.0936 -86.3736 40° Northeast 469 540 29,000  Level Indianapolis Center
Mon 07:39:42 PM 38.1883 -86.2606 43° Northeast 468 539 29,000  Level Indianapolis Center
Mon 07:40:44 PM 38.2836 -86.1478 43° Northeast 470 541 29,000  Level Indianapolis Center
Mon 07:41:46 PM 38.3842 -86.0425 39° Northeast 468 539 29,000  Level Indianapolis Center
Mon 07:42:47 PM 38.4814 -85.9300 42° Northeast 471 542 29,000  Level Indianapolis Center
Mon 07:43:49 PM 38.5783 -85.8203 41° Northeast 468 539 29,000  Level Indianapolis Center
Mon 07:44:51 PM 38.7006 -85.6911 39° Northeast 472 543 29,000  Level Indianapolis Center
Mon 07:45:53 PM 38.7931 -85.5819 43° Northeast 474 545 29,000  Level Indianapolis Center
Mon 07:46:55 PM 38.8953 -85.4764 39° Northeast 473 544 29,000  Level Indianapolis Center
Mon 07:47:57 PM 39.0031 -85.3856 33° Northeast 469 540 29,000  Level Indianapolis Center
Mon 07:48:58 PM 39.1106 -85.2964 33° Northeast 466 536 29,000  Level Indianapolis Center
Mon 07:50:00 PM 39.2342 -85.1753 37° Northeast 467 537 29,000  Level Indianapolis Center
Mon 07:51:02 PM 39.3403 -85.0794 35° Northeast 466 536 29,000  Level Indianapolis Center
Mon 07:52:04 PM 39.4481 -84.9892 33° Northeast 467 537 29,000  Level Indianapolis Center
Mon 07:53:06 PM 39.5564 -84.8950 34° Northeast 471 542 29,000 -49 Level Indianapolis Center
Mon 07:54:07 PM 39.6919 -84.8444 16° North 463 533 28,900 -49 Descending Indianapolis Center
Mon 07:55:09 PM 39.8178 -84.8067 13° North 461 531 28,900 -339 Level Indianapolis Center
Mon 07:56:11 PM 39.9431 -84.7628 15° North 461 531 28,200 -823 Descending Indianapolis Center
Mon 07:57:13 PM 40.0689 -84.7139 17° North 463 533 27,200 -927 Descending Indianapolis Center
Mon 07:58:14 PM 40.1950 -84.6764 13° North 461 531 26,300 -878 Descending Indianapolis Center
Mon 07:59:16 PM 40.3194 -84.6372 13° North 457 526 25,400 -1,161 Descending Indianapolis Center
Mon 08:00:18 PM 40.4372 -84.5883 18° North 442 509 23,900 -1,161 Descending Indianapolis Center
Mon 08:01:20 PM 40.5539 -84.5522 13° North 426 490 23,000 -439 Descending Indianapolis Center
Mon 08:02:21 PM 40.6858 -84.5131 13° North 414 476 23,000  Level Indianapolis Center
Mon 08:03:23 PM 40.7975 -84.4686 17° North 415 478 23,000 -48 Level Indianapolis Center
Mon 08:04:25 PM 40.9131 -84.4381 11° North 422 486 22,900 -48 Descending Indianapolis Center
Mon 08:05:27 PM 41.0303 -84.4325 North 418 481 22,900 -488 Level Indianapolis Center
Mon 08:06:28 PM 41.1483 -84.4361 359° North 420 483 21,900 -976 Descending Indianapolis Center
Mon 08:07:30 PM 41.2567 -84.3972 15° North 405 466 20,900 -1,258 Descending Indianapolis Center
Mon 08:08:32 PM 41.3642 -84.3556 16° North 372 428 19,300 -1,403 Descending Indianapolis Center
Mon 08:09:34 PM 41.4567 -84.3781 350° North 337 388 18,000 -1,512 Descending Indianapolis Center
Mon 08:10:35 PM 41.5411 -84.3711 North 314 361 16,200 -2,244 Descending Indianapolis Center
Mon 08:11:37 PM 41.6214 -84.3103 30° Northeast 328 377 13,400 -1,984 Descending Indianapolis Center
Mon 08:12:39 PM 41.7083 -84.2411 31° Northeast 351 404 12,100 -656 Descending Indianapolis Center
Mon 08:13:45 PM 41.7783 -84.1142 53° Northeast 375 432 12,000 -47 Descending Cleveland Center
Mon 08:14:46 PM 41.8319 -83.9972 58° Northeast 371 427 12,000  Level Cleveland Center
Mon 08:15:47 PM 41.9078 -83.9036 43° Northeast 373 429 12,000  Level Cleveland Center
Mon 08:16:48 PM 41.9775 -83.7956 49° Northeast 363 418 12,000  Level Cleveland Center
Mon 08:17:48 PM 42.0472 -83.6900 48° Northeast 368 423 12,000 -300 Level Cleveland Center
Mon 08:18:48 PM 42.0944 -83.5550 65° Northeast 380 437 11,400 -500 Descending Cleveland Center
Mon 08:19:48 PM 42.1331 -83.4364 66° East 388 447 11,000 -145 Descending Cleveland Center
Mon 08:20:52 PM 42.1797 -83.3125 63° Northeast 279 321 11,100 -672 Climbing Cleveland Center
Mon 08:21:53 PM 42.2172 -83.2186 62° Northeast 272 313 9,600 -1,500 Descending Cleveland Center
Mon 08:22:48 PM 42.2706 -83.1675 35° Northeast 259 298 8,200 -787 Descending Cleveland Center
Mon 08:23:55 PM 42.3344 -83.1083 34° Northeast 260 299 8,000 -94 Descending Cleveland Center
Mon 08:24:56 PM 42.3983 -83.0519 33° Northeast 251 289 8,000 -246 Level Cleveland Center
Mon 08:25:57 PM 42.4514 -83.0033 34° Northeast 233 268 7,500 -683 Descending Cleveland Center
Mon 08:26:59 PM 42.4925 -83.0358 330° Northwest 185 213 6,600 -750 Descending Cleveland Center
Mon 08:28:05 PM 42.4844 -83.1117 262° West 169 194 5,900 -738 Descending Cleveland Center
Mon 08:29:01 PM 42.4564 -83.1556 229° Southwest 180 207 5,100 -513 Descending Cleveland Center
Mon 08:30:02 PM 42.4139 -83.1903 211° Southwest 169 194 4,900 -541 Descending Cleveland Center
Mon 08:31:03 PM 42.3736 -83.2222 210° Southwest 175 201 4,000 -931 Descending Cleveland Center
Mon 08:31:58 PM 42.3333 -83.2517 208° Southwest 169 194 3,100 -879 Descending Cleveland Center
Mon 08:32:59 PM 42.2931 -83.2781 206° Southwest 144 166 2,300 -787 Descending Cleveland Center

Login

Don't have an account? Register now (free) for customized features, flight alerts, and more!